GW6910 Weather Reports


time (UTC)temp
C
wind
direction
speed
KPH
gust
KPH
rain 1hr
cm
rain 24hr
cm
rain mn
cm
humidity
%
barometer
mb
20260506234526 8 232 3.2 9.7 0.00 0.05 0.00 82 1012.0
20260506234012 8 279 0.0 4.8 0.00 0.05 0.00 82 1012.0
20260506233512 8 264 0.0 4.8 0.00 0.05 0.00 82 1012.0
20260506233028 8 271 0.0 8.0 0.00 0.05 0.00 82 1011.9
20260506232507 8 286 1.6 8.0 0.00 0.05 0.00 82 1012.0
20260506232008 8 253 1.6 3.2 0.00 0.05 0.00 82 1011.9
20260506231522 8 259 0.0 4.8 0.00 0.05 0.00 82 1012.0
20260506231007 8 252 0.0 4.8 0.00 0.05 0.00 82 1012.0
20260506230506 8 260 1.6 4.8 0.00 0.05 0.00 82 1012.0
20260506230022 8 248 1.6 4.8 0.00 0.05 0.00 82 1011.9
20260506225511 8 265 3.2 4.8 0.00 0.05 0.00 82 1012.0
20260506225008 8 273 1.6 6.4 0.00 0.05 0.00 82 1011.9
20260506224523 8 319 1.6 6.4 0.00 0.05 0.00 81 1011.9
20260506224007 8 265 1.6 4.8 0.00 0.05 0.00 82 1011.9
20260506223515 8 310 1.6 4.8 0.00 0.05 0.00 82 1011.9
20260506223026 8 53 1.6 4.8 0.00 0.05 0.00 82 1011.9
20260506222512 8 348 0.0 3.2 0.00 0.05 0.00 83 1011.9
20260506222015 8 31 1.6 4.8 0.00 0.05 0.00 82 1011.9
20260506221526 8 10 1.6 4.8 0.00 0.05 0.00 82 1011.8
20260506221011 8 344 0.0 3.2 0.00 0.05 0.00 82 1011.7
20260506220504 8 349 0.0 3.2 0.00 0.05 0.00 82 1011.7
20260506220027 8 319 0.0 3.2 0.00 0.05 0.00 82 1011.6
20260506215506 8 352 0.0 3.2 0.00 0.05 0.05 82 1011.5
20260506215013 8 34 0.0 3.2 0.00 0.05 0.05 82 1011.5
20260506214522 8 287 0.0 3.2 0.00 0.05 0.05 83 1011.4
20260506214008 8 311 0.0 3.2 0.00 0.05 0.05 82 1011.4
20260506213510 8 5 0.0 3.2 0.00 0.05 0.05 82 1011.3
20260506213030 8 5 0.0 3.2 0.00 0.05 0.05 82 1011.2
20260506212508 9 5 0.0 3.2 0.00 0.05 0.05 81 1011.1
20260506212018 9 15 0.0 3.2 0.00 0.05 0.05 81 1011.1
20260506211529 9 25 1.6 3.2 0.00 0.05 0.05 82 1011.1
20260506211010 9 55 0.0 3.2 0.00 0.08 0.05 82 1011.1
20260506210511 9 19 0.0 3.2 0.00 0.08 0.05 81 1011.1
20260506210034 9 19 0.0 3.2 0.00 0.08 0.05 81 1011.2
20260506205508 9 19 0.0 3.2 0.00 0.10 0.05 81 1010.9
20260506205008 9 9 0.0 3.2 0.00 0.15 0.05 81 1011.0
20260506204519 9 11 0.0 4.8 0.00 0.18 0.05 80 1010.9
20260506204010 9 360 1.6 4.8 0.00 0.25 0.05 79 1010.9
20260506203511 9 82 1.6 3.2 0.00 0.28 0.05 79 1010.9
20260506203028 9 13 1.6 3.2 0.00 0.30 0.05 79 1010.9
20260506202510 9 74 0.0 6.4 0.00 0.36 0.05 79 1010.8
20260506202012 10 13 3.2 6.4 0.00 0.41 0.05 78 1010.8
20260506201533 10 56 1.6 8.0 0.00 0.46 0.05 78 1010.7
20260506201009 10 313 3.2 12.9 0.00 0.46 0.05 78 1010.7
20260506200509 10 11 4.8 12.9 0.00 0.48 0.05 78 1010.6
20260506200028 10 75 4.8 8.0 0.00 0.51 0.05 78 1010.6
20260506195511 10 61 3.2 8.0 0.00 0.51 0.05 78 1010.6
20260506195010 10 5 3.2 8.0 0.00 0.51 0.05 78 1010.6
20260506194528 10 346 1.6 8.0 0.00 0.51 0.05 78 1010.5
20260506194010 10 280 1.6 4.8 0.00 0.51 0.05 79 1010.4
20260506193507 10 20 1.6 3.2 0.00 0.51 0.05 79 1010.3
20260506193022 10 360 1.6 3.2 0.00 0.53 0.05 79 1010.2
20260506192508 10 348 1.6 3.2 0.00 0.53 0.05 78 1010.2
20260506192008 10 16 0.0 3.2 0.00 0.53 0.05 78 1010.1
20260506191527 10 13 0.0 3.2 0.00 0.56 0.05 78 1010.0
20260506191006 10 24 1.6 3.2 0.00 0.56 0.05 78 1010.0
20260506190504 10 28 1.6 4.8 0.00 0.56 0.05 77 1010.0
20260506190010 10 5 1.6 4.8 0.00 0.56 0.05 77 1009.9
20260506185503 10 351 0.0 3.2 0.00 0.56 0.05 77 1009.8
20260506185004 10 326 1.6 3.2 0.00 0.56 0.05 77 1010.0
20260506184507 10 5 1.6 6.4 0.00 0.56 0.05 76 1009.8
20260506184004 10 320 1.6 6.4 0.00 0.56 0.05 77 1009.7
20260506183508 10 317 1.6 8.0 0.00 0.56 0.05 77 1009.7
20260506183006 10 309 1.6 8.0 0.00 0.56 0.05 77 1009.6
20260506182504 10 22 1.6 4.8 0.00 0.58 0.05 77 1009.5
20260506182004 10 340 1.6 8.0 0.00 0.58 0.05 77 1009.5
20260506181503 10 26 4.8 8.0 0.00 0.58 0.05 76 1009.5
20260506181004 11 242 1.6 4.8 0.00 0.58 0.05 77 1009.3
20260506180503 11 85 1.6 4.8 0.00 0.58 0.05 77 1009.3
20260506180014 11 352 1.6 4.8 0.00 0.61 0.05 77 1009.3
20260506175503 11 319 1.6 8.0 0.00 0.61 0.05 77 1009.1
20260506175004 11 323 1.6 8.0 0.00 0.61 0.05 77 1009.1
20260506174508 11 346 3.2 8.0 0.00 0.61 0.05 76 1009.1
20260506174008 11 39 1.6 6.4 0.00 0.61 0.05 77 1009.1
20260506173504 11 14 3.2 9.7 0.00 0.61 0.05 77 1009.1
20260506173009 11 51 1.6 9.7 0.00 0.61 0.05 77 1009.2
20260506172504 11 45 3.2 9.7 0.00 0.61 0.05 76 1009.2
20260506172005 11 360 3.2 8.0 0.00 0.61 0.05 76 1009.1
20260506171518 11 332 3.2 8.0 0.00 0.61 0.05 75 1009.0
20260506171007 11 348 3.2 8.0 0.00 0.61 0.05 76 1009.0
20260506170506 11 61 1.6 4.8 0.00 0.61 0.05 78 1009.0
20260506170008 11 319 1.6 4.8 0.00 0.61 0.05 78 1009.0
20260506165503 11 336 1.6 4.8 0.00 0.61 0.05 78 1009.0
20260506165004 11 336 3.2 4.8 0.00 0.61 0.05 78 1009.0
20260506164511 11 293 1.6 8.0 0.00 0.61 0.05 78 1008.9
20260506164008 11 5 1.6 8.0 0.00 0.61 0.05 78 1008.9
20260506163505 11 288 3.2 9.7 0.00 0.64 0.05 77 1008.9
20260506163012 11 350 3.2 9.7 0.00 0.64 0.05 77 1008.8
20260506162503 11 328 4.8 9.7 0.00 0.64 0.05 77 1008.9
20260506162008 11 306 1.6 9.7 0.00 0.64 0.05 77 1008.8
20260506161512 11 341 3.2 9.7 0.00 0.64 0.05 77 1008.8
20260506161007 11 30 4.8 14.5 0.00 0.64 0.05 77 1008.9
20260506160508 11 107 1.6 14.5 0.00 0.64 0.05 77 1008.9
20260506160011 11 334 4.8 14.5 0.00 0.64 0.05 75 1008.9
20260506155506 12 71 4.8 14.5 0.00 0.66 0.05 75 1008.8
20260506155003 12 309 8.0 14.5 0.00 0.66 0.05 73 1008.8
20260506154508 12 11 3.2 14.5 0.00 0.66 0.05 74 1008.8
20260506154004 12 284 6.4 14.5 0.00 0.69 0.05 74 1008.7
20260506153509 12 350 6.4 12.9 0.00 0.69 0.05 75 1008.7
20260506153011 12 53 3.2 12.9 0.00 0.69 0.05 76 1008.6
20260506152508 11 9 3.2 14.5 0.00 0.71 0.05 76 1008.5
20260506152010 12 339 6.4 14.5 0.00 0.71 0.05 76 1008.6
20260506151515 12 57 8.0 14.5 0.00 0.71 0.05 74 1008.5
20260506151010 12 43 4.8 14.5 0.00 0.71 0.05 75 1008.5
20260506150506 12 352 4.8 12.9 0.00 0.71 0.05 75 1008.3
20260506150025 12 62 4.8 12.9 0.00 0.74 0.05 77 1008.4
20260506145507 12 10 4.8 12.9 0.00 0.74 0.05 77 1008.3
20260506145005 12 74 4.8 12.9 0.00 0.74 0.05 77 1008.4
20260506144515 11 360 4.8 12.9 0.00 0.74 0.05 77 1008.4
20260506144014 12 336 4.8 12.9 0.00 0.74 0.05 79 1008.4
20260506143505 11 49 3.2 12.9 0.00 0.74 0.05 80 1008.4
20260506143033 11 27 4.8 14.5 0.00 0.74 0.05 80 1008.5
20260506142509 11 305 4.8 14.5 0.00 0.74 0.05 79 1008.5
20260506142008 12 306 3.2 8.0 0.00 0.74 0.05 80 1008.5
20260506141514 12 352 3.2 8.0 0.00 0.74 0.05 80 1008.4
20260506141008 11 280 1.6 11.3 0.00 0.74 0.05 81 1008.4
20260506140505 11 328 3.2 11.3 0.00 0.76 0.05 80 1008.3
20260506140014 11 33 4.8 9.7 0.00 0.76 0.05 80 1008.4
20260506135506 11 19 3.2 9.7 0.00 0.76 0.05 80 1008.4
20260506135005 11 360 3.2 9.7 0.00 0.76 0.05 81 1008.4
20260506134514 11 321 1.6 6.4 0.00 0.76 0.05 82 1008.5
20260506134008 11 294 1.6 6.4 0.00 0.79 0.05 82 1008.5
20260506133510 11 244 3.2 6.4 0.00 0.79 0.05 82 1008.5
20260506133018 11 46 3.2 6.4 0.00 0.81 0.05 82 1008.5
20260506132509 11 310 1.6 11.3 0.00 0.81 0.05 82 1008.5
20260506132009 11 30 1.6 11.3 0.00 0.84 0.05 83 1008.4
20260506131516 11 263 1.6 11.3 0.00 0.84 0.05 82 1008.3
20260506131008 11 11 3.2 11.3 0.00 0.84 0.05 82 1008.3
20260506130510 11 327 1.6 9.7 0.00 0.84 0.05 83 1008.2
20260506130016 11 173 3.2 11.3 0.00 0.84 0.05 83 1008.1
20260506125507 11 26 4.8 11.3 0.00 0.84 0.05 81 1008.1
20260506125006 11 344 1.6 11.3 0.00 0.84 0.05 82 1008.0
20260506124516 11 19 4.8 11.3 0.00 0.84 0.05 82 1008.0
20260506124008 11 36 1.6 11.3 0.00 0.86 0.05 84 1008.0
20260506123508 11 242 3.2 8.0 0.00 0.86 0.05 82 1008.0
20260506123019 11 350 1.6 8.0 0.00 0.89 0.05 82 1007.9
20260506122507 11 57 3.2 8.0 0.00 0.91 0.05 81 1007.9
20260506122012 11 60 3.2 6.4 0.00 0.94 0.05 80 1007.9
20260506121515 11 9 3.2 6.4 0.00 0.94 0.05 81 1007.9
20260506121005 11 16 1.6 9.7 0.00 0.94 0.05 81 1007.7
20260506120512 11 289 3.2 12.9 0.00 0.94 0.05 82 1007.7
20260506120016 11 265 4.8 12.9 0.00 0.94 0.05 80 1007.7
20260506115508 12 22 3.2 12.9 0.00 0.94 0.05 80 1007.7
20260506115010 11 72 4.8 12.9 0.00 0.94 0.05 79 1007.7
20260506114521 12 352 4.8 9.7 0.00 0.94 0.05 80 1007.7
20260506114009 11 58 4.8 9.7 0.00 0.94 0.05 80 1007.6
20260506113509 11 30 4.8 11.3 0.00 0.94 0.05 79 1007.6
20260506113021 11 28 4.8 11.3 0.00 0.94 0.05 79 1007.5
20260506112507 12 349 6.4 11.3 0.00 0.94 0.05 79 1007.4
20260506112007 12 38 3.2 11.3 0.00 0.94 0.05 80 1007.5
20260506111519 12 13 3.2 11.3 0.00 0.94 0.05 80 1007.5
20260506111006 11 30 4.8 8.0 0.00 0.94 0.05 80 1007.5
20260506110515 12 5 3.2 8.0 0.00 0.94 0.05 80 1007.5
20260506110014 12 17 3.2 8.0 0.00 0.94 0.05 80 1007.5
20260506105508 12 33 4.8 8.0 0.00 0.94 0.05 80 1007.4
20260506105012 12 314 3.2 12.9 0.00 0.94 0.05 81 1007.4
20260506104519 12 327 3.2 12.9 0.00 0.94 0.05 81 1007.3
20260506104007 12 18 1.6 9.7 0.00 0.94 0.05 82 1007.3
20260506103508 11 38 4.8 9.7 0.00 0.94 0.05 82 1007.2
20260506103018 11 352 1.6 11.3 0.00 0.94 0.05 83 1007.2
20260506102510 11 352 4.8 11.3 0.00 0.94 0.05 82 1007.2
20260506102011 11 284 3.2 9.7 0.00 0.94 0.05 82 1007.2
20260506101537 11 9 1.6 9.7 0.00 0.94 0.05 83 1007.2
20260506101010 11 300 3.2 9.7 0.00 0.94 0.05 83 1007.2
20260506100510 11 53 3.2 6.4 0.00 0.94 0.05 82 1007.1
20260506100017 11 17 1.6 8.0 0.00 0.94 0.05 84 1007.1
20260506095512 11 335 3.2 8.0 0.00 0.94 0.05 84 1007.1
20260506095008 11 338 4.8 8.0 0.00 0.94 0.05 83 1007.1
20260506094518 11 9 4.8 8.0 0.00 0.94 0.05 83 1006.9
20260506094005 11 81 4.8 9.7 0.00 0.94 0.05 84 1006.9
20260506093514 11 344 4.8 9.7 0.00 0.94 0.05 84 1006.9
20260506093023 11 36 4.8 8.0 0.00 0.94 0.05 84 1006.9
20260506092508 11 39 3.2 8.0 0.00 0.94 0.05 85 1006.8
20260506092010 11 291 3.2 8.0 0.00 0.94 0.05 86 1006.8
20260506091522 11 17 1.6 11.3 0.00 0.94 0.05 87 1006.9
20260506091010 11 23 3.2 11.3 0.00 0.94 0.05 86 1006.9
20260506090512 11 94 3.2 8.0 0.00 0.94 0.05 86 1006.8
20260506090022 11 31 3.2 8.0 0.00 0.94 0.05 86 1006.8
20260506085509 11 352 1.6 6.4 0.00 0.94 0.05 87 1006.7
20260506085011 11 46 3.2 6.4 0.00 0.94 0.05 87 1006.6
20260506084522 11 282 3.2 6.4 0.00 0.94 0.05 87 1006.6
20260506084007 11 13 1.6 6.4 0.00 0.94 0.05 88 1006.5
20260506083506 11 300 3.2 8.0 0.00 0.94 0.05 87 1006.5
20260506083020 11 276 3.2 8.0 0.00 0.94 0.05 86 1006.4
20260506082507 11 63 1.6 4.8 0.00 0.94 0.05 87 1006.4
20260506082012 11 5 1.6 6.4 0.00 0.94 0.05 87 1006.4
20260506081522 11 299 1.6 8.0 0.00 0.94 0.05 88 1006.4
20260506081011 11 17 3.2 8.0 0.00 0.94 0.05 88 1006.3
20260506080507 11 32 1.6 6.4 0.00 0.94 0.05 88 1006.4
20260506073511 11 295 1.6 4.8 0.00 0.94 0.05 89 1006.4
20260506073024 11 338 1.6 6.4 0.00 0.94 0.05 89 1006.4
20260506072517 10 28 0.0 6.4 0.00 0.94 0.05 90 1006.4
20260506072008 10 325 1.6 3.2 0.00 0.94 0.05 90 1006.3
20260506071522 10 13 1.6 3.2 0.00 0.94 0.05 91 1006.2
20260506071011 10 254 0.0 4.8 0.00 0.94 0.05 91 1006.3
20260506070508 10 26 1.6 4.8 0.00 0.94 0.05 90 1006.2
20260506062514 10 329 1.6 4.8 0.00 0.94 0.05 90 1005.9
20260506062013 10 321 0.0 3.2 0.00 0.94 0.05 91 1005.8
20260506061525 10 23 1.6 3.2 0.00 0.94 0.05 90 1005.9
20260506061013 10 302 1.6 3.2 0.00 0.94 0.05 90 1005.9
20260506060508 10 25 1.6 4.8 0.00 0.94 0.05 89 1005.8
20260506051012 11 281 0.0 3.2 0.03 0.94 0.05 91 1005.5
20260506050517 11 286 0.0 3.2 0.03 0.94 0.05 91 1005.5
20260506045007 11 250 0.0 3.2 0.03 0.94 0.05 92 1005.5
20260506044526 11 250 0.0 3.2 0.03 0.94 0.05 92 1005.5
20260506044017 11 233 0.0 3.2 0.03 0.94 0.05 92 1005.5
20260506043511 11 245 0.0 3.2 0.03 0.94 0.05 92 1005.5
20260506043027 11 211 0.0 3.2 0.03 0.94 0.05 92 1005.5
20260506042511 11 244 1.6 6.4 0.03 0.94 0.05 91 1005.5
20260506042019 11 275 1.6 6.4 0.00 0.91 0.03 91 1005.5
20260506041530 11 276 1.6 4.8 0.00 0.89 0.00 91 1005.4
20260506041007 11 275 3.2 4.8 0.00 0.89 0.00 91 1005.4
20260506040510 11 195 0.0 3.2 0.00 0.89 0.00 91 1005.5
20260506040004 11 279 1.6 3.2 0.00 0.89 0.00 92 1005.5
20260506035504 11 263 1.6 4.8 0.00 0.89 0.00 92 1005.6
20260506035004 11 193 0.0 4.8 0.00 0.89 0.00 92 1005.6
20260506034507 11 220 0.0 3.2 0.00 0.89 0.00 92 1005.6
20260506034004 11 200 0.0 3.2 0.00 0.89 0.00 92 1005.7
20260506033504 11 191 0.0 3.2 0.00 0.89 0.00 92 1005.7
20260506033006 11 186 0.0 3.2 0.00 0.89 0.00 92 1005.6
20260506032504 11 199 0.0 3.2 0.00 0.89 0.00 92 1005.7
20260506032007 11 269 0.0 3.2 0.00 0.89 0.00 91 1005.7
20260506031519 11 196 0.0 6.4 0.00 0.89 0.00 91 1005.7
20260506031007 11 190 0.0 6.4 0.00 0.89 0.00 91 1005.7
20260506030508 11 171 1.6 6.4 0.00 0.89 0.00 91 1005.7
20260506030022 11 202 1.6 4.8 0.00 0.89 0.00 91 1005.8
20260506025513 11 183 1.6 4.8 0.00 0.89 0.00 91 1005.8
20260506025010 11 220 0.0 3.2 0.00 0.89 0.00 91 1005.8
20260506024506 11 220 1.6 4.8 0.00 0.89 0.00 91 1005.7
20260506024003 11 201 0.0 4.8 0.00 0.89 0.00 91 1005.7
20260506023505 11 191 0.0 3.2 0.00 0.89 0.00 91 1005.7
20260506023007 11 236 0.0 3.2 0.00 0.89 0.00 91 1005.7
20260506022502 11 211 0.0 4.8 0.00 0.89 0.00 91 1005.7
20260506022003 11 194 1.6 6.4 0.00 0.89 0.00 90 1005.7
20260506021511 11 198 1.6 6.4 0.00 0.89 0.00 90 1005.7
20260506021008 11 219 0.0 8.0 0.00 0.89 0.00 90 1005.7
20260506020512 11 216 1.6 8.0 0.00 0.89 0.00 90 1005.7
20260506020021 11 198 1.6 8.0 0.00 0.89 0.00 90 1005.8
20260506015508 11 171 1.6 9.7 0.00 0.89 0.00 90 1005.8
20260506015011 11 207 4.8 9.7 0.00 0.89 0.00 90 1005.8
20260506014522 11 175 3.2 9.7 0.00 0.89 0.00 90 1005.9
20260506014010 11 208 1.6 9.7 0.00 0.89 0.00 90 1005.9
20260506013504 12 163 3.2 9.7 0.00 0.89 0.00 90 1005.9
20260506013003 12 190 3.2 9.7 0.00 0.89 0.00 90 1005.9
20260506012508 12 202 1.6 9.7 0.00 0.89 0.00 90 1005.9
20260506012005 12 219 3.2 11.3 0.00 0.89 0.00 90 1005.9
20260506011506 12 208 4.8 11.3 0.00 0.89 0.00 90 1006.0
20260506011005 12 205 3.2 9.7 0.00 0.89 0.00 90 1006.0
20260506010505 12 185 4.8 9.7 0.00 0.89 0.00 90 1006.0
20260506010023 12 198 4.8 11.3 0.00 0.89 0.00 91 1006.0
20260506005507 12 200 4.8 11.3 0.00 0.89 0.00 91 1006.1
20260506005012 12 196 4.8 11.3 0.00 0.89 0.00 91 1006.1
20260506004524 12 244 3.2 11.3 0.00 0.89 0.00 91 1006.1
20260506004006 12 184 1.6 12.9 0.00 0.89 0.00 91 1006.1
20260506003511 12 198 4.8 12.9 0.00 0.89 0.00 92 1006.2
20260506003021 12 193 1.6 4.8 0.00 0.89 0.00 92 1006.3
20260506002506 12 207 0.0 4.8 0.00 0.89 0.00 93 1006.3
20260506002003 12 182 1.6 4.8 0.00 0.89 0.00 93 1006.3
20260506001504 12 200 1.6 4.8 0.00 0.89 0.00 93 1006.4
20260506001003 12 188 1.6 6.4 0.00 0.86 0.00 94 1006.4
20260506000508 12 190 1.6 6.4 0.00 0.86 0.00 94 1006.4
20260506000018 12 195 1.6 6.4 0.00 0.86 0.00 95 1006.5
20260505235511 12 167 1.6 4.8 0.00 0.86 0.00 95 1006.6
20260505235004 11 198 1.6 4.8 0.00 0.86 0.00 95 1006.6